Terug naar catalogus

ALMUNTHER

ActiefAmateurradioSSO
NORAD 63240·PAYLOAD·🇧🇭 Bahrain

Gelanceerd Mar 15, 2025 vanaf Vandenberg Space Force Base

Loading…

Volgende Passages (komende 24 uur)

TLE

VersSource: Space-Track

Epoch: Sep 14, 2026, 12:31 UTC

1 63240U 25052AG  26257.52217587  .00013668  00000-0  41047-3 0  9991
2 63240  97.3740 152.1915 0006078 169.7737 190.3631 15.34532666 83704

Volg ALMUNTHER in realtime met AllMySat

Download on the App Store